This is the latest recevied weather packets stored in our database for station/object IU2EVW-3. If no packets are shown the sender has not sent any weather packets the latest 10 day(s).
| Time | Temp. | Humidity | Pressure | Rain* | Wind** | Luminosity | Snow |
|---|---|---|---|---|---|---|---|
| 1777614035 | 11.67° C | 40% | 1028.4 hPa | - | - | - | - |
| 1777612833 | 11.11° C | 41% | 1028.2 hPa | - | - | - | - |
| 1777611632 | 11.11° C | 42% | 1028.1 hPa | - | - | - | - |
| 1777610431 | 10.56° C | 44% | 1028 hPa | - | - | - | - |
| 1777609230 | 10.56° C | 45% | 1027.7 hPa | - | - | - | - |
| 1777608029 | 10° C | 45% | 1027.6 hPa | - | - | - | - |
| 1777606827 | 10° C | 45% | 1027.4 hPa | - | - | - | - |
| 1777605626 | 10° C | 44% | 1027.3 hPa | - | - | - | - |
| 1777604425 | 10.56° C | 44% | 1027.3 hPa | - | - | - | - |
| 1777603224 | 10° C | 44% | 1027.3 hPa | - | - | - | - |
| 1777602023 | 10.56° C | 44% | 1027.4 hPa | - | - | - | - |
| 1777600821 | 10.56° C | 44% | 1027.4 hPa | - | - | - | - |
| 1777599620 | 10.56° C | 44% | 1027.3 hPa | - | - | - | - |
| 1777598419 | 11.11° C | 44% | 1027.2 hPa | - | - | - | - |
| 1777597217 | 11.11° C | 44% | 1027.2 hPa | - | - | - | - |
| 1777596016 | 11.11° C | 44% | 1027.2 hPa | - | - | - | - |
| 1777594815 | 11.67° C | 44% | 1027.1 hPa | - | - | - | - |
| 1777593614 | 11.67° C | 43% | 1027 hPa | - | - | - | - |
| 1777592412 | 11.67° C | 41% | 1026.9 hPa | - | - | - | - |
| 1777591211 | 12.22° C | 41% | 1026.7 hPa | - | - | - | - |
| 1777590010 | 12.22° C | 41% | 1026.7 hPa | - | - | - | - |
| 1777588809 | 12.78° C | 40% | 1026.6 hPa | - | - | - | - |
| 1777587608 | 12.78° C | 38% | 1026.4 hPa | - | - | - | - |
| 1777586406 | 13.33° C | 38% | 1026.2 hPa | - | - | - | - |
| 1777585205 | 13.33° C | 37% | 1026 hPa | - | - | - | - |
* Rain since midnight (hover to see other rain measurements)
** Current wind speed in m/s (hover to see current wind gust speed)